Weather History for KNJM - December, 2012

Change the Weather History Date:

Friday, December 21, 2012

  Actual Average (KNKT) Record (KNKT)
Temperature  
Mean Temperature 52 °F -  
Max Temperature 64 °F 53 °F 72 °F (2011)
Min Temperature 39 °F 34 °F 17 °F (2004)
Degree Days  
Heating Degree Days 12    
Growing Degree Days 2 (Base 50)    
Moisture  
Dew Point 38 °F    
Average Humidity 63    
Maximum Humidity 96    
Minimum Humidity 43    
Precipitation  
Precipitation 0.25 in - - ()
Sea Level Pressure  
Sea Level Pressure 29.64 in    
Wind  
Wind Speed 18 mph (WSW)    
Max Wind Speed 31 mph    
Max Gust Speed 48 mph    
Visibility 8 miles    
Events Rain    
Averages and records for this station are not official NWS values.
T = Trace of Precipitation, MM = Missing Value Source: NWS Daily Summary

Daily Weather History Graph

Daily Weather History Graph

Search for Another Location

Airport or City:

Trip Planner

Search our weather history database for the weather conditions in past years. The results will help you decide how hot, cold, wet, or windy it might be!

Date:

Astronomy

Dec. 21, 2012 Rise Set
Actual Time 7:11 AM EST 5:01 PM EST
Civil Twilight 6:43 AM EST 5:29 PM EST
Nautical Twilight 6:12 AM EST 6:01 PM EST
Astronomical Twilight 5:41 AM EST 6:31 PM EST
Moon 12:38 PM EST (12/21) 1:06 AM EST (12/21)
Length of Visible Light 10h 45m
Length of Day
9h 49m
Waxing Gibbous, 64% of the Moon is Illuminated
Dec 21
Waxing Gibbous
Dec 28
Full
Jan 4
Last Quarter
Jan 11
New
Jan 18
First Quarter

Hourly Weather History & Observations

Time (EST) Temp. Windchill Dew Point Humidity Pressure Visibility Wind Dir Wind Speed Gust Speed Precip Events Conditions
12:57 AM 64.9 °F - 61.0 °F 87% 29.55 in 6.0 mi South 25.3 mph 38.0 mph 0.00 in Rain Light Rain
1:22 AM 62.6 °F - 60.8 °F 94% 29.51 in 2.0 mi South 25.3 mph 38.0 mph 0.07 in Rain Heavy Rain
1:41 AM 64.4 °F - 62.6 °F 94% 29.48 in 3.0 mi South 26.5 mph 46.0 mph 0.11 in Rain Rain
1:46 AM 64.4 °F - 62.6 °F 94% 29.48 in 2.0 mi South 24.2 mph 36.8 mph 0.16 in Rain Heavy Rain
1:51 AM 64.4 °F - 62.6 °F 94% 29.48 in 1.8 mi South 25.3 mph 35.7 mph 0.20 in Rain Heavy Rain
1:57 AM 64.0 °F - 63.0 °F 96% 29.50 in 2.0 mi South 31.1 mph 46.0 mph 0.22 in Rain Rain
2:08 AM 64.4 °F - 62.6 °F 94% 29.51 in 3.0 mi SW 25.3 mph 48.3 mph 0.03 in Rain Light Rain
2:44 AM 62.6 °F - 60.8 °F 94% 29.51 in 10.0 mi WSW 9.2 mph 17.3 mph 0.03 in   Overcast
2:57 AM 63.0 °F - 59.0 °F 87% 29.54 in 10.0 mi West 10.4 mph 20.7 mph 0.03 in   Overcast
3:34 AM 55.4 °F - 46.4 °F 72% 29.54 in 10.0 mi West 16.1 mph 33.4 mph N/A   Overcast
3:57 AM 54.0 °F - 42.1 °F 64% 29.56 in 10.0 mi West 16.1 mph 27.6 mph N/A   Overcast
4:57 AM 50.0 °F - 39.0 °F 66% 29.60 in 10.0 mi West 16.1 mph 25.3 mph N/A   Mostly Cloudy
5:57 AM 45.0 °F 38.9 °F 32.0 °F 60% 29.64 in 10.0 mi West 12.7 mph 23.0 mph N/A   Clear
6:57 AM 44.1 °F 38.6 °F 30.9 °F 60% 29.67 in 10.0 mi West 10.4 mph 25.3 mph N/A   Clear
7:57 AM 44.1 °F 39.0 °F 30.0 °F 58% 29.68 in 10.0 mi West 9.2 mph 25.3 mph N/A   Clear
8:57 AM 46.0 °F 42.5 °F 30.9 °F 56% 29.70 in 10.0 mi West 6.9 mph 18.4 mph N/A   Clear
9:57 AM 46.9 °F - 30.0 °F 52% 29.70 in 10.0 mi West 11.5 mph 25.3 mph N/A   Clear
10:57 AM 48.9 °F - 28.9 °F 46% 29.69 in 10.0 mi West 13.8 mph 24.2 mph N/A   Clear
11:57 AM 50.0 °F - 28.0 °F 43% 29.66 in 10.0 mi West 15.0 mph 26.5 mph N/A   Clear
12:57 PM 48.0 °F - 27.0 °F 44% 29.65 in 10.0 mi West 15.0 mph 27.6 mph N/A   Partly Cloudy
1:57 PM 48.9 °F - 28.0 °F 44% 29.65 in 10.0 mi West 11.5 mph 20.7 mph N/A   Overcast
2:57 PM 46.9 °F - 26.1 °F 44% 29.66 in 10.0 mi West 10.4 mph 27.6 mph N/A   Overcast
3:57 PM 46.9 °F - 26.1 °F 44% 29.69 in 10.0 mi West 12.7 mph 25.3 mph N/A   Overcast
4:57 PM 46.0 °F 40.6 °F 26.1 °F 46% 29.71 in 10.0 mi West 11.5 mph 18.4 mph N/A   Scattered Clouds
5:57 PM 44.1 °F 40.8 °F 26.1 °F 49% 29.74 in 10.0 mi West 5.8 mph - N/A   Clear
6:57 PM 43.0 °F 39.5 °F 25.0 °F 49% 29.77 in 10.0 mi West 5.8 mph - N/A   Clear
7:57 PM 43.0 °F 37.2 °F 21.9 °F 43% 29.79 in 10.0 mi West 10.4 mph 20.7 mph N/A   Clear
8:57 PM 42.1 °F 34.9 °F 21.9 °F 45% 29.81 in 10.0 mi WNW 13.8 mph 21.9 mph N/A   Clear
9:57 PM 41.0 °F 35.2 °F 21.0 °F 45% 29.82 in 10.0 mi West 9.2 mph 21.9 mph N/A   Clear
10:57 PM 41.0 °F 34.7 °F 19.9 °F 43% 29.83 in 10.0 mi West 10.4 mph 19.6 mph N/A   Clear
11:57 PM 39.9 °F 33.9 °F 21.0 °F 47% 29.84 in 10.0 mi West 9.2 mph 21.9 mph N/A   Clear